INTELSAT 902 (IS-902)   
1 26900U 01039A   19260.85214435  .00000028  00000-0  00000-0 0  9990
2 26900   0.0249 240.4338 0002837 291.8360 192.9897  1.00272945 66004
ARIANE 44L R/B          
1 26901U 01039B   19260.91190842  .00009345  00000-0  14090-2 0  9990
2 26901   7.3953  39.8718 6847463 151.8751 274.5950  2.85629295166899